Volver al catálogo

SL-14 R/B

ActivoPO
NORAD 16792·ROCKET BODY·🇷🇺 Russia

Lanzado Jun 12, 1986 desde Plesetsk Cosmodrome

Loading…

Próximos Pases (próximas 24 horas)

TLE

ActualizadoSource: Space-Track

Época: Sep 14, 2026, 17:28 UTC

1 16792U 86046B   26257.72837663  .00000283  00000-0  29744-4 0  9996
2 16792  82.4781 261.5661 0022148 326.5339  33.4476 14.85723488154470

Sigue SL-14 R/B en tiempo real con AllMySat

Download on the App Store